User: anonymous   Login
Location: Unnamed
(23.5608°S, 46.6833°W)
Time: 00:29:10
(UTC-03:00)
Language:

LO-87 - Orbit

View from above orbital plane
View from above orbital plane
View from above satellite
View from above satellite

Ground track
Ground track

The orbit data is extracted from the following two-line orbital elements,

1 41557U 16033B   23087.65352966  .00067295  00000-0  12017-2 0  9999
2 41557  97.3821 192.9639 0007290  83.2461  24.1776 15.49791336381114
Epoch (UTC): 28 March 2023 15:41:04
Eccentricity: 0.0007290
inclination: 97.3821°
perigee height: 412 km
apogee height: 422 km
right ascension of ascending node: 192.9639°
argument of perigee: 83.2461°
revolutions per day: 15.49791336
mean anomaly at epoch: 24.1776°
orbit number at epoch: 38111

The dashed part of the orbit path shows where the satellite is in the earth's shadow,  

DLR